GEFSMW_500_meanwind_000.txt.gz
Wind_Speed
44 46 48 51 55 55 53 52 52 51 49 46 44 42 43 43 44 44 43 42 41 41 40 41 42 43 45 48 51 52 53 54 56 58 60 61 61 62 62 59 52 48 48
49 51 51 53 56 54 51 51 49 47 45 43 41 41 40 40 40 39 37 37 37 38 40 42 44 46 48 50 54 56 58 58 59 61 63 63 63 63 63 60 55 50 49
52 52 50 51 54 51 50 50 50 45 41 40 38 37 36 36 34 33 34 35 37 39 42 45 48 50 52 55 58 60 62 63 62 62 63 64 64 61 58 56 55 54 53
55 54 49 50 49 49 52 54 53 50 46 41 36 35 34 34 34 33 34 36 38 41 44 48 52 55 58 60 62 64 66 66 65 66 66 67 67 64 62 54 50 53 57
59 53 49 51 51 52 53 52 48 47 46 41 35 34 34 34 34 34 35 38 42 46 50 53 55 57 59 61 62 63 65 67 68 69 70 71 72 70 68 64 54 50 54
53 48 50 53 51 50 50 46 44 46 42 34 32 33 33 32 32 34 37 41 45 48 51 54 56 58 59 59 59 60 62 63 65 67 69 72 74 76 74 73 71 64 58
45 41 46 48 48 47 46 45 48 49 42 33 33 33 31 31 32 37 40 42 43 47 51 52 48 45 45 47 50 54 58 61 63 62 62 64 68 72 74 76 75 72 64
40 36 41 45 47 49 48 50 55 51 35 32 33 31 31 32 34 40 40 41 43 46 45 38 37 41 43 46 48 52 58 60 61 60 60 60 62 65 69 75 73 71 69
39 39 41 44 47 51 51 56 58 39 33 33 33 32 32 32 37 39 39 42 42 38 36 37 38 38 40 44 48 51 54 56 55 55 55 57 59 61 65 70 69 69 67
41 42 44 47 49 53 53 57 48 36 34 33 31 32 32 34 37 37 40 43 39 36 36 35 35 37 40 44 47 47 45 45 47 47 49 52 53 55 59 65 66 68 66
42 43 46 50 52 53 50 54 47 37 36 32 32 32 32 35 36 37 40 39 36 35 36 34 36 38 41 43 44 45 44 40 40 42 43 44 47 47 49 54 62 66 68
42 41 44 48 49 46 44 46 41 38 34 32 33 34 34 35 34 36 38 36 35 36 34 33 35 36 36 38 40 41 41 37 35 37 38 39 42 42 42 42 49 58 65
44 38 39 43 40 35 33 33 34 34 33 34 35 35 35 34 33 35 36 35 35 35 32 32 33 34 34 35 35 36 35 34 31 33 35 35 36 37 36 37 39 46 52
39 37 35 34 32 32 33 33 35 35 33 33 33 35 35 33 34 35 36 36 36 34 32 31 32 33 33 32 31 34 34 31 28 27 30 32 31 32 34 35 35 39 43
40 40 39 36 34 36 37 38 40 36 34 34 35 35 36 35 36 36 37 38 36 34 34 34 34 33 33 32 31 32 32 32 30 26 24 27 29 31 34 36 34 36 39
43 39 37 36 35 36 37 39 39 36 36 35 35 36 36 36 37 38 38 39 37 36 36 36 35 35 34 33 34 32 32 33 32 31 28 25 24 26 30 35 37 38 40
40 38 37 37 37 37 37 38 37 36 35 36 38 36 36 37 38 39 40 41 39 37 38 37 36 36 35 35 35 33 34 34 33 30 28 28 27 27 27 28 31 35 39
36 36 37 36 36 33 32 34 34 35 35 38 39 38 38 38 39 41 42 43 40 37 38 37 37 36 36 36 37 35 35 36 36 33 31 30 31 32 33 34 34 35 37
34 38 39 38 30 25 28 33 34 31 33 37 39 39 39 39 41 43 44 43 39 37 37 37 37 37 37 38 39 38 39 40 40 39 39 39 38 39 39 40 40 43 45
34 36 36 31 27 31 34 38 41 39 37 37 39 40 40 41 42 44 45 42 38 37 36 38 37 37 37 39 40 41 42 43 43 43 44 45 47 47 48 50 51 51 51
33 35 31 26 28 32 37 40 41 39 37 38 40 41 43 43 43 44 43 40 39 37 37 38 38 37 39 40 42 44 45 46 46 46 47 49 51 53 55 58 60 60 57
34 31 25 25 30 34 35 36 38 37 37 38 42 45 45 44 44 42 41 39 39 38 38 39 39 39 40 42 44 47 48 50 51 52 52 53 54 57 60 63 65 64 60
45 39 26 24 30 34 34 36 39 40 41 42 45 46 44 42 41 40 40 39 38 39 38 38 39 41 44 46 48 50 51 53 55 56 57 59 60 63 65 67 67 67 66
33 38 37 33 32 31 32 35 37 37 39 44 45 43 41 39 38 39 38 38 38 39 39 39 41 44 47 49 51 53 55 56 58 60 62 64 67 69 69 68 67 65 65
31 33 38 35 31 29 33 40 39 38 42 44 42 41 38 37 37 38 38 39 39 40 40 42 44 48 50 52 54 56 57 60 62 64 66 69 71 69 66 63 60 58 58
29 28 32 34 33 32 37 41 41 42 43 41 40 38 36 36 37 38 38 40 42 42 44 47 50 52 54 56 57 59 61 65 67 69 72 72 69 65 60 57 55 55 53

GEFSMW_500_meanwind_006.txt.gz
Wind_Speed
45 47 48 50 52 53 55 58 60 60 60 59 58 58 56 53 51 50 50 49 49 48 47 47 47 47 47 46 45 44 43 43 43 45 46 46 47 48 48 49 49 49 49
51 52 53 54 56 58 59 60 62 63 62 60 59 57 54 51 50 50 51 50 49 47 45 44 43 43 43 43 42 42 42 44 46 48 49 50 51 52 53 54 55 56 56
56 57 58 59 60 60 60 61 63 62 61 58 57 56 54 52 52 52 52 51 49 45 43 43 41 41 41 40 40 41 44 46 48 50 52 54 55 56 58 60 62 63 63
60 61 62 63 62 62 62 62 63 62 61 58 55 55 54 53 53 52 50 49 48 46 44 42 41 41 41 40 41 42 44 47 49 51 54 58 61 63 64 64 65 67 68
64 64 64 62 61 61 60 61 62 62 60 58 56 54 51 50 49 47 46 46 46 45 44 42 42 40 39 41 42 44 45 48 51 54 57 59 60 60 60 58 58 61 66
67 66 64 62 60 58 58 59 60 60 60 58 56 52 49 48 46 44 44 45 45 43 42 42 41 40 39 40 41 43 46 50 53 54 52 49 47 45 44 44 47 53 59
66 65 64 61 57 55 55 56 57 57 57 56 55 52 50 49 48 45 46 47 46 43 41 41 41 40 40 40 42 44 48 50 49 46 43 41 42 43 46 48 52 56 60
68 65 61 57 54 53 53 54 54 54 54 54 54 53 53 52 51 49 48 48 45 42 40 40 40 40 40 41 43 45 47 46 45 42 41 42 44 46 49 51 54 57 58
69 64 57 53 52 51 51 52 53 53 52 53 54 56 55 54 53 49 45 41 39 38 38 40 40 41 41 42 43 44 44 44 43 41 42 44 45 47 47 49 52 54 54
66 62 56 51 49 49 50 52 53 53 52 53 54 56 56 54 52 47 42 38 36 36 37 40 41 41 42 42 42 43 43 43 42 42 43 44 44 44 44 46 48 49 49
64 59 54 50 48 48 49 52 54 54 53 54 54 53 53 53 51 46 41 38 37 37 38 40 40 40 40 40 40 41 42 42 42 43 43 42 42 42 42 43 43 44 43
58 53 49 47 45 46 48 50 52 52 52 53 51 49 51 54 52 48 42 39 38 38 39 40 40 39 38 39 39 40 41 41 42 42 42 41 41 40 39 39 38 38 37
54 50 48 47 46 47 47 47 49 48 48 48 47 45 48 49 47 43 40 39 39 39 39 40 40 41 40 39 39 39 40 40 40 41 41 41 40 38 36 35 34 33 32
52 52 51 49 50 51 47 43 42 42 42 42 40 42 44 43 41 38 36 37 38 38 38 39 41 43 43 42 40 40 39 39 41 41 41 41 40 37 34 34 33 31 30
49 49 49 45 42 45 46 43 38 37 37 36 38 40 39 36 35 36 36 36 36 36 37 40 43 44 44 43 41 40 41 41 43 43 42 41 40 36 34 33 32 31 30
47 46 44 38 33 34 37 38 34 33 34 36 36 34 30 29 32 34 36 37 36 36 38 40 42 44 45 44 43 42 42 43 44 45 43 41 40 38 35 33 32 32 32
44 40 35 32 28 26 28 31 32 33 34 34 31 28 28 28 30 32 34 35 36 37 39 41 42 44 45 45 45 44 43 43 45 45 44 42 41 40 38 34 33 33 34
42 37 32 28 24 21 20 22 25 29 32 32 30 27 24 25 27 29 32 34 35 37 38 40 42 44 46 47 47 45 44 44 45 46 45 44 43 43 40 37 35 35 36
43 38 33 30 26 23 20 19 22 27 31 31 29 26 25 27 29 31 34 36 38 39 39 41 43 45 47 49 48 46 43 43 45 46 45 44 45 44 42 40 38 37 38
43 38 34 32 29 26 23 22 25 27 29 29 28 27 27 28 30 34 37 39 41 42 41 42 44 46 48 49 49 46 43 43 44 45 45 45 45 46 45 44 42 41 40
38 34 31 29 28 26 25 24 25 28 30 29 28 27 27 29 32 37 40 41 42 42 43 45 46 47 48 48 48 46 44 43 43 45 46 46 46 47 47 48 47 46 45
32 30 27 25 23 22 23 24 25 27 28 28 28 27 28 30 33 37 39 41 43 45 46 47 48 47 47 46 45 44 44 43 43 44 45 46 47 48 49 51 52 51 51
25 25 23 22 21 21 23 25 26 26 27 27 27 27 30 32 35 37 39 40 41 43 44 46 46 46 45 44 44 44 44 44 44 45 46 47 48 49 51 53 54 55 55
17 19 21 23 25 26 27 28 28 28 28 28 29 30 33 35 37 40 42 43 43 42 42 43 43 44 44 44 44 45 45 45 45 46 47 49 51 52 54 55 57 59 59
13 16 21 25 29 30 30 29 29 30 31 31 32 34 35 38 40 43 44 44 43 41 41 41 42 43 44 45 45 45 46 47 47 48 50 52 54 56 57 59 60 61 62
17 17 19 22 25 26 27 26 27 29 32 34 35 36 38 41 43 44 44 44 42 41 40 40 41 43 44 46 47 48 49 50 51 53 55 56 58 59 61 62 63 65 66

GEFSMW_500_meanwind_012.txt.gz
Wind_Speed
43 45 47 49 51 53 53 53 54 55 56 57 58 58 58 57 57 56 55 54 54 54 54 53 53 52 52 51 51 52 53 54 55 55 56 57 57 57 55 54 52 50 48
48 50 51 53 53 54 54 54 54 55 56 57 58 59 59 58 57 56 55 55 55 54 53 53 52 52 51 51 51 51 52 53 53 53 54 56 57 56 55 54 52 51 49
51 52 52 53 53 53 54 54 54 55 56 57 58 59 59 59 58 57 56 55 55 55 54 53 53 53 52 52 52 52 52 51 51 50 50 51 53 53 52 51 49 49 48
56 56 56 56 57 58 58 59 59 59 59 60 61 61 61 61 60 58 57 57 56 55 55 55 54 54 53 52 52 53 52 52 51 49 48 49 49 50 49 48 49 49 50
58 59 61 63 65 66 67 67 68 67 67 65 64 64 64 63 62 60 59 58 57 56 55 54 53 53 51 51 51 52 53 53 52 50 49 49 49 49 49 49 48 49 51
65 67 70 72 74 75 75 75 75 74 72 69 67 66 65 64 63 61 59 57 56 55 53 52 51 50 49 49 50 51 53 53 53 52 50 50 49 49 49 49 48 50 51
74 77 79 80 80 80 80 79 78 75 72 69 67 65 64 64 63 60 57 54 52 51 50 50 49 48 48 48 50 51 52 52 52 51 49 49 49 48 48 48 49 50 51
82 83 83 83 83 82 80 78 74 71 68 65 63 61 61 60 58 55 52 49 47 47 47 48 47 47 47 48 49 50 51 51 51 49 49 48 47 47 47 47 48 49 49
84 85 84 82 80 77 73 70 66 63 60 59 57 55 54 55 53 51 50 48 48 48 47 47 46 46 46 47 48 49 49 49 48 48 47 46 46 46 46 47 47 48 47
84 82 80 76 71 67 63 60 57 55 52 52 52 51 52 54 53 51 49 47 46 47 48 48 47 45 44 44 45 46 47 46 46 45 43 43 43 44 44 44 44 44 44
75 72 69 65 61 57 54 52 51 50 49 49 51 51 53 52 50 49 47 45 44 45 46 47 47 46 44 44 44 45 45 44 43 42 40 40 40 41 41 41 41 42 43
63 62 62 61 57 53 50 48 48 47 47 48 51 53 53 52 51 50 48 45 44 44 45 46 47 45 44 44 43 43 43 42 40 39 39 39 38 39 39 39 39 40 41
58 61 63 62 59 54 50 48 46 46 45 45 48 52 53 53 53 50 45 44 44 45 46 46 45 44 43 43 42 41 40 39 39 39 39 38 38 38 38 38 38 38 39
61 65 66 63 58 53 48 45 42 40 39 39 41 46 51 52 49 43 42 44 44 43 42 42 43 42 40 39 38 39 39 39 39 40 40 40 39 39 38 38 38 38 39
65 67 65 59 52 46 43 40 36 33 31 31 33 37 42 45 42 41 42 42 39 36 36 39 41 40 38 37 37 38 39 40 40 40 41 41 40 40 40 39 40 40 40
65 65 59 50 41 37 34 32 31 28 26 24 25 28 33 38 40 41 39 35 32 32 36 39 39 38 37 35 36 37 38 38 38 40 41 42 42 42 42 41 41 41 42
63 60 49 37 30 26 24 24 25 25 23 21 19 20 24 28 31 32 31 28 29 32 34 34 33 33 34 34 34 35 36 36 37 39 40 42 44 44 44 44 43 43 44
57 51 40 29 21 17 17 19 22 23 23 21 18 17 18 21 23 23 24 25 27 29 29 28 28 29 30 32 32 33 35 36 38 39 41 43 44 45 45 44 44 45 45
50 44 34 25 18 14 15 18 20 22 23 22 20 18 19 20 21 22 24 25 27 27 26 26 25 25 27 29 31 33 36 38 39 40 41 42 43 44 44 45 46 47 47
43 38 31 24 18 14 15 17 18 20 21 21 21 21 22 22 23 24 25 26 27 27 26 25 24 24 25 27 30 34 38 40 42 43 43 44 44 45 45 46 47 47 48
38 35 30 25 20 18 17 17 18 19 20 22 23 24 25 25 25 26 27 28 29 29 28 27 26 26 26 27 30 33 37 41 44 45 46 46 46 47 47 47 48 49 50
36 34 30 27 24 23 22 21 21 21 22 23 25 27 28 29 29 30 30 31 32 32 32 32 31 30 30 31 32 34 38 42 44 46 47 48 48 48 48 49 49 50 50
36 35 33 30 28 26 26 26 26 27 27 28 29 30 32 33 33 34 34 35 35 36 37 37 37 37 37 37 37 38 40 42 44 46 48 49 49 49 49 49 49 50 50
38 37 36 34 32 30 29 28 28 28 29 30 31 32 33 35 37 38 38 39 39 40 41 42 42 42 42 42 42 43 43 44 44 45 46 47 48 49 49 49 50 50 51
39 40 39 36 34 33 32 31 31 30 29 29 30 31 32 34 36 39 42 43 44 45 46 47 48 48 48 48 48 47 47 46 46 46 46 47 48 49 50 50 51 51 52
40 41 39 37 35 33 32 31 31 31 31 31 31 31 32 34 36 39 42 45 47 49 51 52 52 53 53 53 53 52 50 49 49 49 49 50 50 51 51 52 53 54 54

GEFSMW_500_meanwind_018.txt.gz
Wind_Speed
41 43 43 44 45 45 47 48 50 51 53 55 56 57 57 58 58 58 58 57 57 56 56 56 57 58 59 60 60 60 60 59 59 58 58 57 56 55 54 52 51 51 52
44 44 44 45 45 46 48 51 53 55 57 58 60 61 61 62 62 62 62 61 61 60 58 57 57 58 59 59 60 60 60 60 59 59 58 57 57 57 55 53 50 49 49
45 45 46 47 49 51 54 58 61 63 65 67 68 69 69 69 68 68 68 67 66 65 64 62 61 61 60 60 60 61 61 60 60 59 59 59 59 58 57 55 53 50 49
48 50 52 54 57 60 63 67 70 72 74 76 77 77 77 77 75 74 73 72 70 69 68 67 65 64 63 62 62 63 62 61 60 60 60 60 60 60 59 59 58 55 54
56 59 62 64 66 69 72 74 77 80 82 83 84 83 82 81 79 78 76 75 73 71 70 68 67 66 65 64 63 63 63 62 62 61 61 61 62 62 62 61 61 60 60
66 68 70 72 74 76 78 80 82 83 84 85 84 83 81 78 76 74 72 72 71 70 69 68 67 66 65 63 63 62 62 62 62 62 62 62 62 61 61 61 61 61 61
73 73 75 78 79 80 81 81 80 79 78 77 75 74 72 70 68 66 65 66 68 69 68 67 66 65 63 61 59 59 60 61 62 62 61 61 60 59 59 60 61 62 61
74 75 78 79 79 79 78 76 73 70 67 66 66 65 65 63 61 59 58 59 61 63 63 62 60 59 57 55 54 55 56 58 60 60 60 60 58 57 57 58 59 61 61
75 75 76 76 75 73 69 65 64 64 63 65 66 66 64 61 57 54 53 54 56 57 55 55 55 53 51 50 51 53 54 55 57 57 57 56 56 57 57 57 58 60 60
76 76 74 72 67 62 58 58 62 65 66 67 66 63 58 55 53 52 50 50 51 52 52 52 52 52 51 49 49 49 49 49 49 50 52 53 54 55 56 57 58 59 61
74 72 68 62 55 52 53 57 60 61 61 57 52 46 44 44 46 47 46 46 47 49 51 50 50 51 50 48 46 44 43 43 44 46 49 50 51 52 52 54 56 57 58
66 61 54 48 46 48 51 54 55 53 49 43 37 34 33 34 37 40 41 42 44 46 47 48 48 49 49 45 43 42 42 42 44 46 48 49 49 50 50 51 52 54 56
54 48 44 43 44 46 48 50 49 46 41 35 31 29 28 28 30 32 34 36 39 42 44 44 44 46 46 43 41 42 43 43 44 45 46 47 48 48 48 49 50 52 54
47 43 41 41 42 44 46 46 45 41 37 32 30 28 27 27 26 26 26 28 33 36 40 40 41 41 40 39 40 42 43 44 44 44 44 44 44 45 46 47 48 49 50
42 39 38 38 39 42 43 43 41 38 35 32 30 28 27 26 25 23 23 23 25 29 32 35 37 38 38 38 40 42 44 44 43 42 40 40 40 41 42 43 44 46 46
38 36 35 36 38 40 41 41 39 37 34 32 30 28 27 26 24 22 22 22 23 24 26 29 31 33 35 36 38 41 42 42 40 39 38 38 38 38 38 39 41 42 43
36 35 34 35 37 38 40 40 39 37 34 32 31 28 27 26 24 22 21 20 21 22 24 25 28 30 32 34 36 38 40 39 39 38 38 38 36 35 36 37 39 40 42
34 33 33 35 36 38 40 40 39 38 35 33 31 29 28 26 24 23 21 20 20 21 23 24 26 28 30 33 35 36 37 38 38 37 37 36 35 34 35 36 38 40 42
34 34 34 36 37 39 40 41 40 38 36 34 32 30 29 28 26 24 22 21 21 22 23 24 25 27 30 32 34 35 35 36 36 35 34 34 34 33 34 35 37 40 42
34 34 35 36 38 40 41 42 41 40 38 36 34 32 31 30 29 27 25 24 24 24 24 25 26 27 29 31 33 34 34 35 35 34 33 33 34 34 34 35 36 38 40
36 36 36 37 39 41 42 42 42 41 40 38 36 34 33 32 31 30 29 28 28 28 28 28 28 29 30 31 33 34 35 35 35 34 32 33 33 34 34 35 36 38 39
37 37 38 39 41 43 44 44 44 43 41 39 38 36 34 33 33 32 32 32 32 32 32 32 33 33 33 34 35 35 36 36 35 35 34 34 34 34 34 35 36 37 39
39 39 40 42 44 45 46 45 45 44 42 40 38 37 36 35 34 34 34 33 34 35 36 37 37 38 38 38 39 39 39 40 39 39 39 38 38 37 37 36 36 36 38
41 42 43 45 47 48 48 47 47 46 44 42 40 38 37 36 36 35 35 36 36 37 38 39 41 42 43 44 44 44 44 45 45 45 45 45 43 43 42 41 40 39 39
44 46 47 49 49 50 49 49 49 48 47 45 43 41 40 39 38 38 38 38 38 39 40 41 43 45 47 48 50 50 50 51 51 52 52 52 51 50 49 48 47 46 45
48 49 51 52 52 52 52 52 52 51 50 48 47 46 45 44 43 43 43 42 42 42 43 44 45 47 49 51 53 55 56 56 57 57 58 58 58 57 56 55 54 53 52

GEFSMW_500_meanwind_024.txt.gz
Wind_Speed
41 43 45 47 48 49 50 51 52 53 54 55 57 58 59 60 61 62 64 64 65 65 65 64 64 64 64 63 63 63 62 62 62 62 63 63 62 62 61 60 59 59 58
47 48 49 50 51 52 54 55 57 59 61 62 63 64 65 66 66 67 68 69 70 70 70 70 69 68 68 67 67 66 65 64 64 64 64 64 64 64 64 63 62 61 61
56 56 57 58 59 59 60 61 62 64 65 66 67 69 70 71 72 72 72 73 74 74 75 75 75 74 74 73 72 71 70 68 67 66 66 65 64 64 64 64 64 63 62
62 65 67 68 68 68 67 66 66 67 69 71 72 74 74 75 75 75 75 75 76 77 78 78 79 79 78 77 77 76 75 74 72 71 70 69 67 66 65 64 63 63 63
68 71 73 74 74 74 73 72 72 74 75 77 77 77 77 76 76 76 76 76 77 78 79 80 81 81 81 81 80 80 79 79 77 76 75 73 72 71 69 67 65 64 63
73 74 75 76 77 78 78 78 78 79 79 79 78 76 73 71 69 69 70 71 72 73 76 78 79 80 80 81 81 81 81 81 80 79 78 76 75 74 73 71 69 68 66
74 74 75 77 78 80 80 81 81 80 78 74 68 62 58 56 56 57 59 61 64 67 69 71 73 73 73 74 74 75 76 77 78 78 77 76 76 75 74 73 71 70 69
73 75 77 78 80 81 81 80 77 73 67 58 51 46 45 46 48 50 53 56 59 62 65 68 69 69 67 65 62 63 66 67 68 70 72 73 73 73 72 71 70 70 70
73 75 77 79 80 79 76 71 64 55 47 41 38 38 39 40 43 45 47 48 49 50 53 56 60 61 60 57 56 56 56 56 55 56 59 62 65 66 67 68 68 68 68
72 74 74 74 71 66 59 52 44 38 35 33 34 34 36 37 40 40 40 40 39 39 38 39 44 49 51 50 50 52 51 51 51 50 50 53 55 58 60 61 63 65 66
67 66 63 59 54 49 44 39 35 32 31 31 31 32 34 36 37 37 36 35 35 34 33 33 35 39 45 49 49 50 50 49 49 49 48 49 50 53 55 58 60 61 62
58 55 51 48 45 41 37 33 31 29 29 29 30 31 33 34 35 35 34 33 32 31 30 29 31 36 40 46 49 50 51 50 49 49 48 49 50 51 53 54 56 58 60
51 48 46 43 40 36 33 30 29 28 29 30 31 33 34 34 34 34 33 32 31 29 27 26 27 31 36 41 45 48 51 51 51 50 50 51 52 53 53 54 55 57 58
47 46 43 40 37 34 31 30 30 30 31 32 34 34 35 35 34 33 32 31 30 28 25 24 25 27 31 36 40 44 47 50 52 51 50 49 49 51 52 53 53 54 54
45 43 41 39 36 33 32 31 31 32 33 34 36 36 36 36 35 34 32 31 29 27 25 24 24 25 28 31 34 39 42 45 46 47 47 48 48 48 49 50 50 50 50
43 41 40 39 37 35 33 33 33 34 35 37 38 38 38 37 36 34 32 31 30 28 26 24 24 24 26 28 31 34 37 39 41 42 44 46 46 46 46 47 48 47 48
41 40 40 39 38 37 37 36 37 38 39 40 40 40 39 39 37 35 33 31 30 29 27 25 25 24 25 27 29 31 34 37 39 41 42 43 45 46 46 46 46 47 47
40 40 40 40 40 40 40 41 41 42 43 44 43 43 42 40 38 36 34 32 31 30 29 27 26 26 26 26 28 30 34 37 39 40 40 41 43 45 46 45 45 46 46
41 42 42 43 43 44 44 45 46 46 47 47 46 45 43 42 40 38 35 33 32 31 30 30 29 28 28 29 29 30 33 36 39 40 40 41 42 44 44 45 45 45 46
44 45 46 46 47 48 48 49 49 50 50 50 49 48 46 44 42 39 36 34 33 32 32 32 32 32 31 32 32 32 33 35 37 40 41 42 43 43 44 44 44 44 45
47 48 50 51 51 52 52 53 53 53 53 53 52 50 48 46 44 42 39 36 35 34 33 33 33 34 35 35 35 35 35 36 37 39 41 42 43 44 43 43 43 44 44
50 52 53 54 55 55 55 55 54 54 53 52 51 50 48 47 45 44 42 40 38 37 36 35 35 35 37 38 39 39 39 38 39 39 41 42 43 44 44 43 43 43 43
54 55 56 56 56 56 55 53 52 51 50 49 48 47 46 45 44 43 42 42 42 41 39 38 38 38 38 40 41 42 43 43 42 42 42 43 44 45 45 44 43 43 43
56 57 57 56 54 52 50 49 48 48 48 47 46 46 45 44 43 42 41 41 42 43 42 42 42 42 42 42 43 44 45 46 46 46 46 45 45 45 45 45 45 44 43
58 57 54 51 48 46 46 47 47 47 47 47 46 45 44 43 41 40 39 38 39 40 42 43 44 45 46 47 47 46 47 49 50 50 50 50 50 49 48 48 47 46 45
55 51 47 45 44 45 45 46 46 47 47 47 47 46 44 42 40 38 37 36 35 34 36 38 41 44 47 49 51 51 51 51 52 53 53 54 54 54 53 52 51 50 48

GEFSMW_500_meanwind_030.txt.gz
Wind_Speed
58 61 63 65 66 68 69 70 70 70 70 70 70 70 70 69 69 69 69 69 69 69 69 69 69 70 70 69 68 68 67 66 66 65 64 64 63 62 61 60 58 57 56
64 67 69 72 73 75 75 75 75 75 75 75 75 75 75 75 75 75 74 74 74 74 74 74 74 74 74 73 73 72 72 71 70 69 69 68 66 65 65 65 64 62 61
71 74 77 79 80 81 80 80 80 80 80 80 80 80 80 79 80 80 80 80 80 80 80 80 80 80 79 79 78 77 77 76 74 74 73 72 70 68 67 67 67 66 65
77 80 81 82 83 83 83 83 83 83 82 81 81 80 81 81 81 81 82 82 83 84 84 84 85 84 84 84 83 82 81 81 79 78 77 76 75 72 70 68 68 67 67
80 81 82 82 82 82 81 80 78 76 75 73 72 71 70 70 70 71 72 73 75 78 80 81 84 85 85 86 86 85 85 84 84 82 81 80 79 77 75 72 71 70 68
79 79 78 78 76 74 71 68 65 62 60 58 56 54 52 50 48 48 49 51 54 58 61 65 69 72 76 79 81 83 84 85 85 85 84 83 82 81 80 77 75 73 72
77 75 72 70 66 62 58 56 54 51 49 47 45 42 39 36 34 32 32 34 36 39 42 45 49 54 59 64 69 74 78 81 83 84 85 84 84 84 84 82 80 78 76
71 68 65 61 57 53 51 49 47 46 44 41 39 36 33 30 29 28 27 27 28 30 33 35 38 42 46 51 56 61 67 72 76 79 82 83 83 84 84 84 84 82 80
64 60 57 54 51 48 47 46 45 44 42 39 36 34 32 30 28 27 26 26 26 27 29 31 33 35 38 41 44 49 55 62 67 71 74 77 78 79 80 82 84 85 83
57 54 51 48 47 46 46 46 45 43 41 39 37 34 32 30 29 28 28 28 28 29 30 31 32 34 36 37 39 41 45 50 56 62 66 66 66 65 67 72 75 78 81
52 50 48 47 47 47 47 46 44 43 42 40 38 36 34 33 32 31 31 30 30 31 32 33 34 35 36 37 37 38 38 41 44 49 53 55 55 56 57 60 63 66 70
50 49 48 48 48 48 47 47 46 44 43 42 40 39 37 36 35 35 34 34 34 34 35 35 36 37 37 37 37 36 36 36 36 39 44 48 51 53 55 55 56 57 58
49 49 50 50 50 50 50 49 48 47 46 45 44 43 42 41 41 40 39 39 38 38 38 38 38 38 38 37 36 34 34 34 35 37 42 46 48 50 52 53 54 54 53
50 50 51 52 52 53 53 53 52 52 51 50 48 47 47 46 45 45 44 43 42 41 41 40 40 39 38 37 35 34 33 33 35 37 40 44 46 49 49 49 51 52 52
51 53 54 55 55 56 56 55 55 55 54 52 51 50 50 49 48 48 47 47 46 44 43 42 41 40 39 38 36 34 33 33 34 37 41 44 47 50 49 47 47 50 51
54 56 57 58 58 58 57 57 56 55 54 53 52 51 50 49 49 48 48 47 47 46 45 44 42 41 40 39 37 35 34 34 34 35 39 42 47 49 49 48 47 47 49
58 59 60 60 60 60 58 56 54 52 50 49 49 48 48 47 47 46 46 45 45 45 44 44 43 42 41 40 39 36 35 35 35 35 36 39 42 46 47 48 48 47 47
60 61 61 60 59 57 54 51 50 49 49 49 49 49 48 47 46 45 44 44 43 42 42 42 42 42 42 41 40 38 36 36 36 37 36 37 39 42 44 45 47 47 47
62 62 60 59 56 53 50 49 49 50 50 50 49 49 48 47 46 45 43 42 40 40 39 39 40 41 42 42 42 40 38 38 38 38 38 39 39 41 43 44 46 47 48
61 60 58 54 50 49 48 48 49 49 50 51 51 50 49 48 47 45 43 40 38 37 36 36 37 39 41 43 43 42 40 39 39 39 39 40 40 41 42 44 45 47 48
59 57 53 50 48 47 47 48 50 51 53 53 53 52 51 50 48 46 43 41 38 35 33 33 34 36 39 42 43 44 42 41 41 41 41 41 41 42 43 44 46 48 49
56 52 49 47 46 47 48 50 52 54 55 55 55 54 53 51 49 47 45 42 39 36 33 31 31 32 35 39 43 44 44 43 43 43 43 43 43 43 44 45 46 48 49
52 48 45 45 47 49 51 52 54 55 56 56 55 54 53 52 51 49 46 43 40 37 33 31 29 29 31 34 39 43 45 45 44 45 46 45 45 44 45 45 46 47 49
48 44 44 45 48 50 52 54 56 57 57 57 56 55 54 52 51 50 48 45 41 38 34 31 29 27 27 29 33 38 42 45 45 46 47 47 47 47 46 46 47 48 48
44 43 44 46 49 52 54 55 57 58 58 57 56 56 55 54 53 51 50 47 43 40 35 31 28 26 25 26 28 31 36 41 45 47 47 48 48 48 48 48 47 48 48
42 43 45 47 50 53 55 57 58 59 58 57 56 57 57 56 56 54 51 48 45 40 36 32 29 26 24 23 24 25 29 34 40 44 47 48 49 50 50 50 49 49 49

GEFSMW_500_meanwind_036.txt.gz
Wind_Speed
65 68 71 74 76 78 80 80 79 77 74 71 68 64 62 60 59 60 64 68 73 78 82 84 84 82 79 78 76 75 74 73 72 71 70 68 67 65 63 62 62 61 60
70 72 74 76 78 78 78 76 72 68 64 61 57 54 52 49 48 48 49 53 58 65 73 80 83 85 84 81 80 78 77 76 75 74 73 72 71 69 68 66 65 64 63
73 75 76 78 78 76 73 69 63 59 56 53 51 49 47 46 45 45 44 44 46 50 56 65 74 81 85 85 84 82 81 79 78 77 77 76 75 73 72 70 69 68 67
75 76 77 76 74 71 66 60 56 53 52 51 49 47 46 44 43 42 41 41 41 42 44 49 57 67 76 82 85 86 85 83 81 80 80 79 78 78 76 74 73 72 70
75 76 76 74 70 65 59 55 52 52 51 50 49 48 47 45 43 41 40 39 38 38 38 40 44 51 60 70 77 83 86 86 85 84 83 83 82 81 80 78 77 75 74
75 75 74 70 66 60 55 53 52 53 53 52 51 51 49 47 45 43 41 38 37 35 35 35 36 39 45 54 63 71 78 84 86 86 86 85 85 84 83 82 80 79 78
75 74 70 66 61 57 54 54 55 55 55 55 54 53 51 49 47 44 42 39 36 35 34 33 33 34 36 41 48 57 64 72 79 84 85 86 87 87 86 86 85 84 82
74 71 67 63 59 57 56 57 58 58 58 57 56 54 52 51 49 47 44 41 38 36 34 33 32 33 33 35 38 43 50 57 65 72 78 82 84 87 88 88 88 87 86
71 68 65 61 59 59 59 60 60 59 58 57 55 53 52 50 49 48 46 44 42 38 36 34 33 33 33 34 35 37 40 44 50 57 64 71 76 81 84 87 88 89 88
68 66 63 62 62 62 62 61 60 59 57 55 53 51 49 48 46 45 45 44 43 41 39 37 35 34 34 34 35 36 37 39 42 46 51 56 62 69 75 80 84 88 89
66 64 64 64 63 63 62 60 59 56 53 51 49 48 46 45 44 43 42 42 42 42 41 40 38 37 37 36 36 36 37 38 39 40 43 46 50 55 62 68 74 80 84
65 65 65 64 63 62 61 58 55 52 50 49 48 47 47 46 45 44 43 42 41 41 41 41 41 40 40 39 39 38 38 39 39 39 40 42 44 46 50 56 63 69 75
65 65 64 63 62 61 58 55 52 50 49 48 48 47 47 46 45 44 43 42 41 40 40 40 41 42 42 42 42 41 41 40 40 40 40 41 42 43 45 48 52 58 64
65 65 64 62 60 57 54 52 50 49 49 48 48 48 47 46 45 43 42 41 40 39 39 39 40 41 43 44 45 44 43 43 43 42 41 41 42 42 43 44 46 51 55
65 64 62 59 57 53 51 50 50 50 50 50 49 48 48 47 46 44 42 41 39 38 37 37 38 39 41 44 46 46 45 45 45 44 44 43 42 42 41 42 43 45 49
64 62 59 56 53 51 50 50 51 51 51 51 50 49 49 48 46 43 42 40 39 38 37 35 35 36 38 41 45 47 46 46 46 46 46 44 43 43 42 41 42 43 45
62 59 56 53 51 50 51 51 52 52 52 52 51 49 48 47 45 44 43 41 40 38 37 35 34 34 35 38 41 45 46 46 46 47 47 46 45 44 43 41 42 43 42
60 56 52 50 50 50 51 53 53 53 53 52 51 50 48 47 47 47 46 44 43 41 39 37 35 34 34 35 38 42 43 45 46 46 47 47 46 45 44 43 43 43 43
57 53 50 49 50 51 52 53 54 55 54 53 52 50 49 49 50 50 49 47 46 45 44 40 36 33 33 33 35 38 40 42 44 46 47 47 47 47 45 45 44 45 46
53 51 49 49 50 51 53 54 55 55 54 53 53 52 52 53 54 53 53 51 50 48 45 40 36 32 31 31 33 35 37 39 41 44 46 47 47 47 47 46 45 46 48
51 49 49 49 50 51 53 55 56 56 55 54 54 53 54 56 57 57 56 55 53 50 44 37 32 29 28 28 30 33 34 35 38 41 44 47 48 48 48 47 47 46 46
49 48 48 49 50 52 54 55 56 56 56 55 55 55 56 58 59 60 59 57 55 49 40 31 27 25 25 25 27 29 31 31 34 38 42 46 48 49 49 49 48 47 47
48 47 47 48 50 52 54 55 56 56 56 56 56 56 57 58 61 63 61 59 55 46 35 26 21 20 21 22 24 26 27 28 31 36 40 44 47 48 49 49 49 49 48
46 46 46 47 49 51 53 55 56 57 57 57 57 57 57 59 62 64 64 61 56 46 34 23 15 14 16 19 20 22 23 25 28 33 38 42 44 47 48 50 50 50 50
46 46 46 46 48 50 52 54 56 57 57 57 57 58 58 60 62 65 66 63 59 51 37 25 14 9 11 15 16 18 19 21 24 28 34 39 42 45 47 49 50 51 51
45 45 45 45 47 49 51 53 56 57 57 57 57 58 59 60 62 64 66 65 61 55 42 29 18 9 7 10 12 14 15 16 19 23 28 34 39 42 45 48 50 51 51

GEFSMW_500_meanwind_042.txt.gz
Wind_Speed
64 68 71 75 78 80 82 83 83 81 77 72 67 62 59 57 55 54 54 53 52 51 50 49 48 48 48 51 55 61 69 76 82 85 85 84 82 80 78 76 74 71 69
67 71 75 78 80 81 82 81 80 76 73 69 65 61 59 58 57 56 56 55 55 54 53 51 50 49 48 48 49 52 58 66 75 82 86 86 84 84 81 80 78 75 73
72 75 78 80 81 81 81 79 77 73 69 66 63 61 59 58 56 55 55 55 54 54 54 53 51 51 50 48 47 48 50 54 63 74 82 86 87 86 84 83 81 79 77
75 78 79 80 81 80 79 77 73 70 68 66 63 61 58 55 54 52 51 50 50 51 51 51 52 51 51 49 48 47 47 48 53 62 73 82 87 87 85 84 83 81 79
76 78 79 80 80 79 77 74 71 68 66 63 60 57 55 53 51 49 48 47 46 47 47 47 48 50 50 49 48 47 46 46 47 53 63 74 83 87 87 85 84 83 80
77 78 80 80 79 78 75 72 68 65 63 60 57 55 53 51 49 47 46 45 44 43 43 44 44 46 47 48 47 46 45 45 45 47 54 64 75 84 88 88 85 84 83
78 79 80 79 78 76 72 68 65 63 60 57 56 55 53 51 49 47 45 43 42 41 41 40 41 41 43 45 46 45 44 44 43 44 47 55 65 76 84 88 87 86 84
78 78 78 78 76 73 69 66 63 61 58 57 56 55 53 51 49 48 46 44 42 40 39 38 38 39 40 41 43 44 44 43 43 43 44 47 56 67 77 84 87 87 86
77 77 78 77 74 70 67 64 62 59 58 57 57 55 53 51 49 48 46 43 41 40 38 37 36 36 37 39 40 42 43 43 42 42 42 44 48 57 68 77 83 87 87
76 77 77 75 71 67 64 62 60 59 58 58 57 55 53 51 49 46 44 42 40 39 37 36 35 35 35 36 38 40 42 42 42 42 42 43 44 49 58 68 76 82 86
76 76 75 72 68 64 62 61 59 59 58 58 57 55 52 49 47 45 43 42 40 39 38 36 34 33 33 33 35 37 40 41 42 42 42 42 43 45 50 58 67 75 81
75 75 74 69 65 62 61 60 59 59 58 58 57 54 51 49 46 45 43 43 42 41 39 37 36 34 32 32 33 35 37 39 41 42 42 42 43 44 46 51 57 65 73
75 74 71 66 63 61 60 59 59 59 59 58 56 54 51 49 47 46 46 45 45 44 42 40 38 36 34 33 32 33 35 37 40 41 43 42 42 43 44 47 51 57 64
74 72 68 64 61 60 59 58 58 59 59 58 56 54 52 50 49 48 49 49 48 47 45 43 41 39 37 35 33 33 33 35 38 40 42 43 43 43 43 45 48 51 56
72 70 66 62 60 58 58 58 58 59 59 58 56 55 52 52 51 51 51 52 52 51 50 48 46 43 40 38 36 34 33 33 36 38 41 43 44 44 43 44 45 47 50
71 68 64 60 58 57 57 57 58 58 59 58 57 55 53 53 53 54 54 55 55 54 53 51 47 43 41 39 38 36 34 33 35 37 40 42 44 44 44 43 44 45 46
69 65 61 59 57 57 57 57 57 58 59 58 57 56 55 55 55 56 58 58 58 57 55 49 43 38 35 35 36 37 35 33 34 36 38 41 44 45 44 44 44 43 44
67 63 59 57 56 56 56 56 57 58 59 58 58 57 57 57 57 59 60 61 61 59 52 45 37 30 25 24 28 33 34 33 33 34 36 39 42 44 45 45 44 43 43
64 61 58 56 55 55 55 56 56 57 58 58 59 59 58 59 59 61 62 63 62 58 51 43 33 23 15 14 19 25 28 30 31 32 34 38 41 43 45 45 45 44 43
63 59 56 55 54 54 54 55 55 56 58 59 59 60 60 60 61 62 64 65 63 59 52 42 30 19 9 7 12 18 22 24 26 28 31 35 39 42 44 45 45 44 43
61 58 56 54 53 53 53 54 55 57 57 58 60 61 61 61 62 63 64 65 64 59 52 41 30 19 7 3 8 11 15 18 21 24 28 33 37 40 42 44 45 44 44
60 57 54 53 53 52 53 53 54 56 57 58 59 60 61 62 62 63 64 65 64 60 54 43 31 20 11 3 2 5 8 13 17 21 25 30 34 38 40 43 45 45 45
58 55 53 52 52 52 52 53 53 55 56 57 58 59 61 62 62 63 64 64 65 62 57 48 36 25 15 8 3 1 5 8 13 18 22 26 31 35 38 42 44 45 45
57 54 52 51 51 51 52 52 52 54 55 56 57 58 59 61 62 63 64 64 65 63 59 53 42 31 22 14 7 3 1 5 9 13 17 22 27 32 36 40 43 45 46
56 53 51 50 50 50 51 51 51 52 53 55 56 57 58 60 61 63 64 65 65 64 61 57 50 40 29 20 13 7 3 2 5 10 14 18 23 28 33 38 41 44 46
55 52 50 49 49 49 50 50 50 51 52 53 54 55 57 59 60 61 63 64 64 63 61 58 54 48 39 30 21 14 8 4 3 7 11 15 19 24 30 35 39 42 45